Regional Weather Roundup
Issued by NWS

Home | Current Version | Previous Version | Text Only | Print | Product List | Glossary Off
Versions: 1 2 3 4 5 6 7 8 9 10 11 12 13 14 15 16 17 18 19 20 21 22 23 24 25 26 27 28 29 30 31 32 33 34 35 36 37 38 39 40 41 42 43 44 45 46 47 48 49 50

000
ASUS43 KIND 240859
RWRIN

WEATHER ROUNDUP FOR INDIANA
NATIONAL WEATHER SERVICE INDIANAPOLIS IN
500 AM EDT FRI OCT 24 2014

NOTE: "FAIR" INDICATES FEW OR NO CLOUDS BELOW 12,000 FEET WITH NO
SIGNIFICANT WEATHER AND/OR OBSTRUCTIONS TO VISIBILITY.

* - STATION DOES NOT REPORT WEATHER SUCH AS PRECIPITATION OR FOG.

+ - STATION NOT QUALITY CONTROLLED BY THE NATIONAL WEATHER SERVICE.
    USE DATA WITH CAUTION...ESPECIALLY DEWPOINT AND RELATIVE
    HUMIDITY OBSERVATIONS.

INZ001>003-010>013-019-020-241000-
NORTHWEST INDIANA

CITY           SKY/WX    TMP DP  RH WIND       PRES   REMARKS
VALPARAISO     NOT AVBL

$$

LMZ046-743>745-241000-
SOUTHERN LAKE MICHIGAN

STATION/POSITION TIME  TEMP WIND        PRES
                       AIR  DIR/SP/G
                 (UTC) (F)  (DEG/KT/KT) (MB)
MICHIGAN CITY    0800   53  170/  6/  7   N/A

$$

INZ004-005-014>016-021>024-241000-
NORTH CENTRAL INDIANA

CITY           SKY/WX    TMP DP  RH WIND       PRES   REMARKS
GOSHEN         CLOUDY    46  41  82 S5        30.07S
SOUTH BEND     CLOUDY    51  42  71 SW7       30.07S

$$

INZ006>009-017-018-025>027-241000-
NORTHEAST INDIANA

CITY           SKY/WX    TMP DP  RH WIND       PRES   REMARKS
ANGOLA *+      CLOUDY    41  39  93 CALM      30.07F
FORT WAYNE     MOCLDY    38  35  89 CALM      30.10S

$$

INZ028-029-035-036-043>045-051>053-241000-
WEST CENTRAL INDIANA

CITY           SKY/WX    TMP DP  RH WIND       PRES   REMARKS
GREENCASTLE +  CLEAR     37  37 100 CALM      30.10S
LAFAYETTE      CLOUDY    47  42  83 CALM      30.08F
TERRE HAUTE    CLOUDY    45  43  93 CALM      30.10S

$$

INZ030>032-037>040-046>048-054>057-064-065-241000-
CENTRAL INDIANA

CITY           SKY/WX    TMP DP  RH WIND       PRES   REMARKS
INDIANAPOLIS   MOCLDY    44  39  82 CALM      30.09S
-EAGLE CREEK   CLEAR     42  40  92 CALM      30.09S
KOKOMO *+      MOCLDY    43  37  81 S5        30.10R
MT COMFORT *+  PTCLDY    39 N/A N/A S3        30.10S
SHELBYVILLE    PTCLDY    40  37  89 CALM      30.10F

$$

INZ033-034-041-042-049-050-058-059-241000-
EAST CENTRAL INDIANA

CITY           SKY/WX    TMP DP  RH WIND       PRES   REMARKS
MUNCIE         PTCLDY    38  36  92 CALM      30.10S

$$

INZ060-061-067>069-081>083-085>088-241000-
SOUTHWEST INDIANA

CITY           SKY/WX    TMP DP  RH WIND       PRES   REMARKS
EVANSVILLE     MOCLDY    43  41  93 CALM      30.12S
HUNTINGBURG *+   N/A     39  36  87 CALM      30.12S VSB 1/4

$$

INZ062-063-066-070>080-084-089>092-241000-
SOUTH CENTRAL AND SOUTHEAST INDIANA

CITY           SKY/WX    TMP DP  RH WIND       PRES   REMARKS
BLOOMINGTON    CLEAR     37  36  96 CALM      30.11S

$$




USA.gov is the U.S. government's official web portal to all federal, state and local government web resources and services.